Voltar ao catálogo

SL-8 R/B

AtivoLEO
NORAD 10521·ROCKET BODY·🇷🇺 Russia

Lançado Dec 16, 1977 de Plesetsk Cosmodrome

Loading…

Próximas Passagens (próximas 24 horas)

TLE

AtualizadoSource: Space-Track

Época: Sep 14, 2026, 00:42 UTC

1 10521U 77119B   26257.02985149  .00000177  00000-0  61376-4 0  9996
2 10521  74.0262 133.9233 0019490  41.6428 318.6208 14.42478023558274

Acompanhe SL-8 R/B em tempo real com AllMySat

Download on the App Store